Airfield :
LOGIN :

Register | Disclaimer

   EN    FR    IT 

 










Legend :    VFR   Marginal VFR   IFR   Intensive IFR   Very Intensive IFR
Visi :
Ceiling :
>= 8 km
>= 3000ft
5 to 8 km
1000 to 3000 ft
1500m to 5 km
500 to 1000 ft
800 to 1500m
200 to 500 ft
< 800m
< 200 ft
Symbols :   Thunderstorms  Fog  Heavy snow  Heavy precipitations  Wind > 20 kt
SIGMETs :     Misc.  Thunderstorms  Icing  Turbulence  Mountain Waves  Volcanic Ashes






- Airport Elevation : 512 ft
- IATA code : URO


LFOP - Rouen Vallée de Seine

CURRENT METAR :
  • 252000Z AUTO 14005KT CAVOK 08/06 Q1017 NOSIG

EXPIRED METARs :
  • 251930Z AUTO 15005KT CAVOK 08/07 Q1017 NOSIG
  • 251900Z AUTO 16006KT 9999 BKN046 OVC086 09/07 Q1017 NOSIG
  • 251830Z AUTO 16004KT 130V190 9999 BKN043 OVC086 09/08 Q1017 NOSIG
  • 251800Z AUTO 15004KT 9999 FEW041 BKN086 10/08 Q1017 NOSIG
  • 251730Z AUTO 15006KT 9999 FEW042 BKN084 10/08 Q1016 NOSIG

TAF TAF LFOP
Valid from the 25 at 18:00 until the 26 at 18:00 UTC


251700Z 2518/2618 12005KT 9999 BKN040
BECMG 2600/2603 3000 BR
PROB40 2603/2610 0400 FG VV///
BECMG 2610/2613 9999 NSW
ATIS : +33 2 35 80 80 34
Met : +33 2 32 86 52 80



MET'MAP, your aeronautical weather chart ! - Copyright ORBIFLY December 2007 - Disclaimer

ORBIFLY MET'MAP TEAM :

Programming & Development : Alexandra Zaïnal
Concept & original design : Baudouin d'Aumeries
Assistance for programming : Marc-Olivier Méhu
Technical & hardware support : Manuel Goepfert

Contact : metmap@orbifly.com




SOURCES & CREDITS :

   NOAA